Showing default

EUTE 36B (EUTE W7), 36101

Orbit data source: Space-Track

EUTE 36B (EUTE W7), 36101 is a payload satellite owned by EutelsatSA (FR) in GEO that was launched on Tue, 24 Nov 2009 UTC via a PROTON-M/BRIZ-M launch vehicle from the Tyuratam Missile And Space Complex (TTMTR). Payload-class satellites include a variety of spacecraft equipped with specific instruments for various scientific and technological missions. These include communications satellites like Starlink; space stations such as the ISS; scientific satellites like the Hubble; Earth observation satellites from companies like Planet Labs, Umbra, and HawkEye 360; GPS; miniature CubeSats for education and research; and military/defense satellites.

Not visible in the next 10 days
Identifier
36101, 2009-065A
Orbit
GEO
Last TLE update
8 hours ago
Origin
Manufacturer
Thales Alenia
Mission
Operational Commercial Communications
Bus & Motor
SPACEBUS 4000C4, S400
Mass
5,627 kg wet, ~2,800 kg dry
Launch date (UTC)
2009-11-24 (15 years ago)
Launch vehicle
PROTON-M/BRIZ-M
Launch site
Tyuratam Missile And Space Complex (TTMTR)
Object type
Payload
Rocket body
Debris
Shape & HBR
Box + 2 Pan + 1 Dish, 34 m
Radar Cross Section
44.769 m², Large (>1 m²)

Expand to show TLE details & history

TLE from 8 hours ago
0 EUTE 36B (EUTE W7)
1 36101U 09065A   25125.87406030  .00000105  00000-0  00000+0 0  9999
2 36101   0.0854  46.3797 0006117   1.1155 181.6409  1.00273525 56728
Epoch: 2025-05-05T20:58Z
Definitive object data (Epoch: 2025-05-05T20:58:38.809Z)
Latitude
-0.01578°
Longitude
50.49692°
Altitude
35,811.483 km
Speed
3.073 km/s
True Right ascension
15h 16m 33s
True Declination
0° 00' 57"
Sunlit
Object was in daylight at TLE epoch
Visualization TLE readout
Latitude
-0.05696°
Longitude
163.26998°
Altitude
35,774.828 km
Speed
3.076 km/s
Apparent Right ascension
22h 57m 36s
Apparent Declination
-5° 02' 15"
Sunlit
Object is in daylight
Visualization observer readout
Local Sidereal Time
12:25:26
Azimuth
35.327° NE
Elevation
-49.903°
Doppler factor
1
Orbital elements
Apogee altitude
35,812.97 km
Perigee altitude
35,761.385 km
Semi-major axis
42,165.315 km
Eccentricity
0.0006117
Inclination
0.0854°
RAAN
46.3797°
Arg. of periapsis
1.1155°
True anomaly
181.63889°
Mean anomaly
181.6409°
Eccentric anomaly
181.6399°
Mean motion
0.25067 °/min
BSTAR
Unknown
Orbital period
1436.13 mins
Loading historical data...
36101 neighbors
Loading maneuver chart data...
Loading SW <> Apogee altitude chart data...
Loading historical data...
Loading historical data...
Loading historical data...
Loading historical data...
Loading historical data...
Loading historical data...
Loading historical data...
Other satellites on launch #65 in the year 2009 (2009-11-24 UTC)

EUTE 36B (EUTE W7) Visibility forecast

Observer location: undefined°, undefined°

EUTE 36B (EUTE W7) is not visible in the next 10 days
Span
Click to sort rows by Start time (UTC) header in descending order
Start Az.
Max El. time (UTC)
Max El. Az.
Max El.
End time (UTC)
End Az.
|